Walla Walla, WA
on Thursday, January 10, 2013

Thursday
Previous Day Next Day
Daily Summary
 ActualAverage (KPDT)Record (KPDT)
Temperature
Mean Temperature °F 35°F  
Max Temperature 36°F 41°F 59°F (1999)
Min Temperature 30°F 28°F -21°F (1909)
Degree Days
Heating Degree Days 32 30  
Month to date heating degree days 312  
Since 1 July heating degree days 2549  
Cooling Degree Days 0 0  
Month to date cooling degree days 0  
Year to date cooling degree days 0  
Moisture
Dew Point 29°F   
Average Humidity 86    
Maximum Humidity 96    
Minimum Humidity 72    
Precipitation
Precipitation 0.07 in 0.05 in 0.54 in (1988)
Month to date precipitation 0.50  
Year to date precipitation 0.50  
Snow
Snow 0.00 in 0.10 in 2.90 in (1965)
Month to date snowfall 1.5  
Year to date snowfall 1.5  
Since 1 July snowfall 9.0  
Snow Depth in   
Wind
Wind Speed 9 mph   
Max Wind Speed 12 mph   
Max Gust Speed mph   
Visibility 6 miles   
Events Fog , Snow   

Key: T is trace of precipitation, MM is missing value
Source: NWS Daily Summary
Time(PST)TemperatureDew PointHumidity Pressure Visibility Wind DirectionWind SpeedGust SpeedPrecipitationEvents Conditions
12:53 AM 36.0°F 28.0°F 73% 29.90 in 10.0 miles South 11.5 mph - N/A   Mostly Cloudy
1:53 AM 35.1°F 28.0°F 76% 29.90 in 10.0 miles South 9.2 mph - N/A   Clear
2:53 AM 34.0°F 27.0°F 75% 29.91 in 10.0 miles South 9.2 mph - N/A   Clear
3:53 AM 33.1°F 27.0°F 78% 29.90 in 10.0 miles South 10.4 mph - N/A   Clear
4:53 AM 34.0°F 27.0°F 75% 29.91 in 10.0 miles South 9.2 mph - N/A   Clear
5:53 AM 33.1°F 27.0°F 78% 29.92 in 10.0 miles South 8.1 mph - N/A   Clear
6:53 AM 32.0°F 27.0°F 82% 29.93 in 10.0 miles South 6.9 mph - N/A   Clear
7:53 AM 33.1°F 27.0°F 78% 29.96 in 10.0 miles South 10.4 mph - N/A   Mostly Cloudy
8:53 AM 33.1°F 28.0°F 82% 29.97 in 10.0 miles South 11.5 mph - N/A   Overcast
9:49 AM 33.8°F 28.4°F 81% 29.94 in 3.0 miles SSW 10.4 mph - N/A   Haze
9:53 AM 33.1°F 28.9°F 85% 29.98 in 0.5 miles SSW 9.2 mph - 0.00 in Fog , Snow Light Snow
10:02 AM 32.0°F 30.2°F 93% 29.95 in 0.2 miles SSW 10.4 mph - 0.01 in Fog , Snow Heavy Snow
10:16 AM 32.0°F 30.2°F 93% 29.95 in 2.5 miles SSW 10.4 mph - 0.02 in Snow Light Snow
10:19 AM 32.0°F 30.2°F 93% 29.95 in 4.0 miles South 10.4 mph - 0.02 in Snow Light Snow
10:32 AM 33.8°F 28.4°F 81% 29.95 in 1.0 miles South 9.2 mph - 0.03 in Snow Light Snow
10:45 AM 32.0°F 30.2°F 93% 29.95 in 1.0 miles SSW 10.4 mph - 0.04 in Snow Light Snow
10:53 AM 32.0°F 30.0°F 92% 29.98 in 1.0 miles SSW 10.4 mph - 0.04 in Snow Light Snow
11:00 AM 32.0°F 30.2°F 93% 29.94 in 0.2 miles South 11.5 mph - 0.01 in Fog , Snow Light Snow
11:07 AM 32.0°F 30.2°F 93% 29.94 in 0.5 miles SSW 10.4 mph - 0.01 in Fog , Snow Snow
11:16 AM 32.0°F 30.2°F 93% 29.94 in 1.0 miles SSW 8.1 mph - 0.01 in Snow Light Snow
11:23 AM 32.0°F 30.2°F 93% 29.93 in 2.0 miles SSW 6.9 mph - 0.01 in Snow Light Snow
11:31 AM 32.0°F 30.2°F 93% 29.94 in 0.8 miles SW 6.9 mph - 0.01 in Snow Light Snow
11:49 AM 32.0°F 30.2°F 93% 29.93 in 0.8 miles SSW 8.1 mph - 0.02 in Snow Light Snow
11:53 AM 32.0°F 30.9°F 96% 29.96 in 1.0 miles SSW 6.9 mph - 0.02 in Snow Light Snow
12:05 PM 32.0°F 30.2°F 93% 29.93 in 0.8 miles South 8.1 mph - 0.00 in Snow Light Snow
12:10 PM 32.0°F 30.2°F 93% 29.93 in 1.0 miles SSW 6.9 mph - 0.01 in Snow Light Snow
12:15 PM 32.0°F 30.2°F 93% 29.93 in 2.0 miles SSW 6.9 mph - 0.01 in Snow Light Snow
12:19 PM 32.0°F 30.2°F 93% 29.93 in 1.0 miles SSW 6.9 mph - 0.01 in Snow Light Snow
12:36 PM 32.0°F 30.2°F 93% 29.92 in 1.0 miles SSW 6.9 mph - 0.01 in Snow Light Snow
12:53 PM 32.0°F 30.0°F 92% 29.96 in 6.0 miles South 6.9 mph - 0.01 in Snow Light Snow
1:53 PM 33.1°F 28.9°F 85% 29.97 in 10.0 miles South 6.9 mph - 0.00 in   Overcast
2:53 PM 34.0°F 28.9°F 82% 29.97 in 10.0 miles SSE 6.9 mph - N/A   Overcast
3:53 PM 35.1°F 27.0°F 72% 29.98 in 10.0 miles South 8.1 mph - N/A   Overcast
4:53 PM 32.0°F 27.0°F 82% 29.98 in 10.0 miles South 5.8 mph - N/A   Overcast
5:53 PM 33.1°F 27.0°F 78% 29.99 in 10.0 miles South 4.6 mph - N/A   Overcast
6:53 PM 33.1°F 28.0°F 82% 29.99 in 10.0 miles South 5.8 mph - N/A   Overcast
7:53 PM 33.1°F 28.0°F 82% 29.98 in 10.0 miles South 5.8 mph - 0.00 in   Overcast
8:53 PM 32.0°F 27.0°F 82% 29.99 in 10.0 miles South 4.6 mph - N/A   Overcast
9:53 PM 30.9°F 28.0°F 89% 29.99 in 10.0 miles WSW 3.5 mph - N/A   Overcast
10:53 PM 30.9°F 28.0°F 89% 30.01 in 10.0 miles Calm Calm - N/A   Overcast
11:53 PM 30.0°F 26.1°F 85% 30.02 in 10.0 miles West 3.5 mph - N/A   Overcast
Moon Phase
Jan. 10 Jan. 11 Jan. 18 Jan. 26 Feb. 03
Sunrise:07:33 AM (PST) Moon Rise:06:17 AM (PST)1/10
Sunset:04:28 PM (PST) Moon Set:03:42 PM (PST)1/10

Copyright © 2014 The Weather Underground, Inc.